FW7786 Weather Reports


time (UTC)temp
C
wind
direction
speed
KPH
gust
KPH
rain 1hr
cm
rain 24hr
cm
rain mn
cm
humidity
%
barometer
mb
20260504100105 8 0 0.0 0.0 0.00 0.00 0.00 76 1014.9
20260504090106 8 0 0.0 0.0 0.00 0.00 0.00 68 1015.1
20260504081554 8 0 0.0 0.0 0.00 0.00 0.00 73 1015.2
20260504050106 8 0 0.0 0.0 0.00 0.00 0.00 73 1015.2
20260504044614 8 0 0.0 0.0 0.00 0.00 0.00 72 1015.1
20260504043101 8 0 0.0 0.0 0.00 0.00 0.00 71 1015.2
20260504041552 8 0 0.0 0.0 0.00 0.00 0.00 72 1014.9
20260504040117 8 0 0.0 0.0 0.00 0.00 0.00 71 1015.1
20260504034607 7 0 0.0 0.0 0.00 0.00 0.00 71 1014.9
20260504033058 7 0 0.0 0.0 0.00 0.00 0.00 71 1015.0
20260504031600 7 0 0.0 0.0 0.00 0.00 0.00 71 1015.0
20260504024604 8 0 0.0 0.0 0.00 0.00 0.00 68 1014.9
20260504023058 8 0 0.0 0.0 0.00 0.00 0.00 65 1015.0
20260504021555 8 0 0.0 0.0 0.00 0.00 0.00 64 1015.0
20260504020053 9 0 0.0 0.0 0.00 0.00 0.00 63 1014.8
20260504014557 9 0 0.0 1.6 0.00 0.00 0.00 60 1014.7
20260504013111 9 0 0.0 0.0 0.00 0.00 0.00 60 1014.8
20260504011554 10 0 0.0 0.0 0.00 0.00 0.00 59 1014.5
20260504010104 10 0 0.0 0.0 0.00 0.00 0.00 57 1014.5
20260504004606 10 0 0.0 0.0 0.00 0.00 0.00 54 1014.4
20260504003053 11 0 0.0 0.0 0.00 0.00 0.00 53 1014.4
20260504001551 11 0 0.0 0.0 0.00 0.00 0.00 51 1014.2
20260504000114 12 0 0.0 0.0 0.00 0.00 0.00 49 1014.1
20260503234555 13 0 0.0 0.0 0.00 0.00 0.00 48 1014.0
20260503233049 14 0 0.0 0.0 0.00 0.00 0.00 45 1013.8
20260503231556 15 0 0.0 0.0 0.00 0.00 0.00 40 1013.8
20260503230056 15 0 0.0 0.0 0.00 0.00 0.00 34 1013.7
20260503224551 16 0 0.0 0.0 0.00 0.00 0.00 31 1013.8
20260503223058 16 0 0.0 0.0 0.00 0.00 0.00 29 1013.9
20260503221553 16 0 0.0 4.8 0.00 0.00 0.00 30 1014.1
20260503220121 16 0 0.0 1.6 0.00 0.00 0.00 31 1014.0
20260503214558 16 221 3.2 8.0 0.00 0.00 0.00 31 1013.9
20260503213059 17 0 0.0 9.7 0.00 0.00 0.00 29 1014.0
20260503211559 17 0 0.0 6.4 0.00 0.00 0.00 30 1014.1
20260503210057 17 0 0.0 8.0 0.00 0.00 0.00 32 1014.0
20260503204558 16 0 0.0 8.0 0.00 0.00 0.00 30 1014.1
20260503203100 17 277 0.0 4.8 0.00 0.00 0.00 30 1014.3
20260503201554 17 0 0.0 11.3 0.00 0.00 0.00 30 1014.4
20260503200100 17 0 0.0 8.0 0.00 0.00 0.00 31 1014.8
20260503194559 16 0 0.0 3.2 0.00 0.00 0.00 35 1015.0
20260503193052 16 0 0.0 4.8 0.00 0.00 0.00 32 1015.3
20260503191555 16 0 0.0 11.3 0.00 0.00 0.00 33 1015.5
20260503190051 16 0 0.0 14.5 0.00 0.00 0.00 33 1015.7
20260503184603 16 0 1.6 14.5 0.00 0.00 0.00 32 1015.8
20260503183055 16 0 0.0 6.4 0.00 0.00 0.00 34 1016.1
20260503181554 15 0 0.0 12.9 0.00 0.00 0.00 35 1016.1
20260503180106 15 0 0.0 4.8 0.00 0.00 0.00 35 1016.1
20260503174555 14 0 0.0 3.2 0.00 0.00 0.00 37 1016.2
20260503173106 14 38 1.6 11.3 0.00 0.00 0.00 37 1016.4
20260503171554 13 22 0.0 4.8 0.00 0.00 0.00 37 1016.4
20260503170106 13 0 0.0 4.8 0.00 0.00 0.00 37 1016.6
20260503160111 12 0 0.0 4.8 0.00 0.00 0.00 42 1017.1